• Em Portugal
  • Lista de países
  • Para 7 dias
  • Temperatura da água
  • Mapas de satélite
  • Mapa do tempo
  • Widgets de tempo
  • user-avatar
    Iniciar Sessão

    Previsão horária em Albani

    Hoje, 17 Agosto, Sexta-feira

    Tempo Temperatura Precipitação Vento Pressão Humidade
    00:00 +10°C° 0,1 mm 7 m/s 759 mmHg 85%
    01:00 +10°C° 0,1 mm 7 m/s 759 mmHg 84%
    02:00 +9°C° 0 mm 6 m/s 759 mmHg 83%
    03:00 +9°C° 0,1 mm 6 m/s 759 mmHg 82%
    04:00 +8°C° 0,1 mm 6 m/s 760 mmHg 80%
    05:00 +8°C° 0,1 mm 6 m/s 760 mmHg 79%
    06:00 +8°C° 0 mm 5 m/s 761 mmHg 76%
    07:00 +8°C° 0 mm 5 m/s 761 mmHg 74%
    08:00 +9°C° 0 mm 5 m/s 762 mmHg 70%
    09:00 +9°C° 0 mm 5 m/s 762 mmHg 66%
    10:00 +10°C° 0 mm 5 m/s 762 mmHg 62%
    11:00 +12°C° 0 mm 4 m/s 763 mmHg 58%
    12:00 +12°C° 0 mm 4 m/s 763 mmHg 56%
    13:00 +12°C° 0 mm 4 m/s 763 mmHg 55%
    14:00 +13°C° 0 mm 4 m/s 763 mmHg 53%
    15:00 +12°C° 0 mm 3 m/s 763 mmHg 56%
    16:00 +12°C° 0 mm 3 m/s 763 mmHg 59%
    17:00 +12°C° 0 mm 2 m/s 764 mmHg 61%
    18:00 +10°C° 0 mm 2 m/s 764 mmHg 65%
    19:00 +9°C° 0 mm 2 m/s 764 mmHg 69%
    20:00 +8°C° 0 mm 1 m/s 765 mmHg 73%
    21:00 +8°C° 0 mm 1 m/s 765 mmHg 75%
    22:00 +8°C° 0 mm 1 m/s 765 mmHg 77%
    23:00 +8°C° 0 mm 1 m/s 766 mmHg 79%

    Amanhã, 18 Agosto, Sábado

    Tempo Temperatura Precipitação Vento Pressão Humidade
    00:00 +7°C° 0 mm 1 m/s 766 mmHg 80%
    01:00 +6°C° 0 mm 2 m/s 766 mmHg 82%
    02:00 +6°C° 0 mm 2 m/s 766 mmHg 83%
    03:00 +6°C° 0 mm 2 m/s 766 mmHg 83%
    04:00 +4°C° 0 mm 3 m/s 766 mmHg 82%
    05:00 +4°C° 0 mm 3 m/s 766 mmHg 82%
    06:00 +5°C° 0 mm 3 m/s 766 mmHg 79%
    07:00 +5°C° 0 mm 3 m/s 766 mmHg 77%
    08:00 +6°C° 0 mm 4 m/s 767 mmHg 74%
    09:00 +8°C° 0 mm 4 m/s 767 mmHg 67%
    10:00 +11°C° 0 mm 4 m/s 767 mmHg 60%
    11:00 +13°C° 0 mm 4 m/s 767 mmHg 53%
    12:00 +14°C° 0 mm 4 m/s 766 mmHg 52%
    13:00 +15°C° 0 mm 4 m/s 765 mmHg 50%
    14:00 +17°C° 0 mm 4 m/s 765 mmHg 49%
    15:00 +15°C° 0 mm 4 m/s 765 mmHg 52%
    16:00 +14°C° 0 mm 3 m/s 765 mmHg 56%
    17:00 +14°C° 0 mm 3 m/s 765 mmHg 60%
    18:00 +12°C° 0 mm 3 m/s 765 mmHg 63%
    19:00 +11°C° 0 mm 3 m/s 765 mmHg 66%
    20:00 +10°C° 0 mm 3 m/s 765 mmHg 70%
    21:00 +8°C° 0 mm 4 m/s 765 mmHg 71%
    22:00 +8°C° 0 mm 4 m/s 765 mmHg 71%
    23:00 +8°C° 0 mm 4 m/s 765 mmHg 72%

    Depois de amanhã, 19 Agosto, Domingo

    Tempo Temperatura Precipitação Vento Pressão Humidade
    00:00 +7°C° 0 mm 4 m/s 764 mmHg 70%
    01:00 +7°C° 0 mm 5 m/s 764 mmHg 68%
    02:00 +7°C° 0 mm 5 m/s 763 mmHg 66%
    03:00 +8°C° 0 mm 5 m/s 763 mmHg 63%
    04:00 +8°C° 0 mm 5 m/s 762 mmHg 61%
    05:00 +8°C° 0 mm 6 m/s 762 mmHg 58%
    06:00 +9°C° 0 mm 6 m/s 762 mmHg 58%
    07:00 +9°C° 0 mm 6 m/s 762 mmHg 59%
    08:00 +10°C° 0 mm 7 m/s 761 mmHg 59%
    09:00 +12°C° 0 mm 7 m/s 761 mmHg 57%
    10:00 +15°C° 0 mm 7 m/s 761 mmHg 55%
    11:00 +17°C° 0 mm 7 m/s 760 mmHg 53%
    12:00 +19°C° 0 mm 6 m/s 759 mmHg 53%
    13:00 +19°C° 0 mm 5 m/s 758 mmHg 52%
    14:00 +20°C° 0 mm 4 m/s 758 mmHg 51%
    15:00 +19°C° 0 mm 3 m/s 757 mmHg 56%
    16:00 +18°C° 0 mm 2 m/s 757 mmHg 62%
    17:00 +19°C° 0 mm 1 m/s 757 mmHg 67%
    18:00 +16°C° 0,2 mm 2 m/s 757 mmHg 71%
    19:00 +14°C° 0,2 mm 3 m/s 757 mmHg 76%
    20:00 +13°C° 0,2 mm 4 m/s 757 mmHg 80%
    21:00 +12°C° 0,7 mm 5 m/s 757 mmHg 84%
    22:00 +10°C° 0,7 mm 6 m/s 757 mmHg 88%
    23:00 +10°C° 0,7 mm 7 m/s 757 mmHg 91%

    20 Agosto, Segunda-feira

    Tempo Temperatura Precipitação Vento Pressão Humidade
    00:00 +9°C° 0,6 mm 7 m/s 757 mmHg 91%
    01:00 +9°C° 0,6 mm 7 m/s 757 mmHg 91%
    02:00 +9°C° 0,6 mm 6 m/s 757 mmHg 91%
    03:00 +9°C° 0,5 mm 7 m/s 757 mmHg 91%
    04:00 +10°C° 0,5 mm 7 m/s 757 mmHg 91%
    05:00 +10°C° 0,5 mm 7 m/s 756 mmHg 90%
    06:00 +10°C° 0,9 mm 8 m/s 757 mmHg 90%
    07:00 +9°C° 0,9 mm 10 m/s 758 mmHg 90%
    08:00 +11°C° 0,9 mm 11 m/s 758 mmHg 91%
    09:00 +11°C° 0,3 mm 11 m/s 759 mmHg 89%
    10:00 +9°C° 0,3 mm 11 m/s 759 mmHg 87%
    11:00 +9°C° 0,3 mm 10 m/s 760 mmHg 85%
    12:00 +9°C° 0,3 mm 10 m/s 760 mmHg 85%
    13:00 +9°C° 0,3 mm 10 m/s 760 mmHg 85%
    14:00 +10°C° 0,3 mm 9 m/s 760 mmHg 85%
    15:00 +10°C° 0,2 mm 9 m/s 760 mmHg 85%
    16:00 +10°C° 0,2 mm 8 m/s 761 mmHg 86%
    17:00 +10°C° 0,2 mm 8 m/s 761 mmHg 86%
    18:00 +10°C° 0 mm 8 m/s 762 mmHg 85%
    19:00 +9°C° 0 mm 7 m/s 762 mmHg 85%
    20:00 +9°C° 0 mm 7 m/s 762 mmHg 84%
    21:00 +9°C° 0 mm 6 m/s 762 mmHg 84%
    22:00 +9°C° 0 mm 6 m/s 762 mmHg 84%
    23:00 +9°C° 0 mm 5 m/s 762 mmHg 84%

    21 Agosto, Terça-feira

    Tempo Temperatura Precipitação Vento Pressão Humidade
    00:00 +9°C° 0 mm 5 m/s 762 mmHg 84%
    01:00 +9°C° 0 mm 5 m/s 762 mmHg 84%
    02:00 +10°C° 0 mm 4 m/s 762 mmHg 84%
    03:00 +10°C° 0 mm 4 m/s 762 mmHg 83%
    04:00 +10°C° 0 mm 4 m/s 762 mmHg 83%
    05:00 +8°C° 0 mm 5 m/s 762 mmHg 82%
    06:00 +10°C° 0 mm 4 m/s 762 mmHg 81%
    07:00 +10°C° 0 mm 4 m/s 762 mmHg 80%
    08:00 +10°C° 0 mm 4 m/s 762 mmHg 79%
    09:00 +10°C° 0 mm 4 m/s 762 mmHg 77%
    10:00 +11°C° 0 mm 4 m/s 762 mmHg 75%
    11:00 +10°C° 0 mm 5 m/s 762 mmHg 72%
    12:00 +10°C° 0,1 mm 5 m/s 762 mmHg 72%
    13:00 +10°C° 0,1 mm 5 m/s 761 mmHg 71%
    14:00 +12°C° 0,1 mm 5 m/s 761 mmHg 71%
    15:00 +12°C° 0,1 mm 5 m/s 761 mmHg 71%
    16:00 +12°C° 0,1 mm 5 m/s 761 mmHg 72%
    17:00 +12°C° 0,1 mm 5 m/s 761 mmHg 73%
    18:00 +10°C° 0,4 mm 5 m/s 761 mmHg 78%
    19:00 +9°C° 0,4 mm 6 m/s 762 mmHg 83%
    20:00 +9°C° 0,4 mm 6 m/s 762 mmHg 88%
    21:00 +8°C° 0,3 mm 6 m/s 763 mmHg 87%
    22:00 +8°C° 0,3 mm 6 m/s 763 mmHg 85%
    23:00 +8°C° 0,3 mm 6 m/s 763 mmHg 84%

    22 Agosto, Quarta-feira

    Tempo Temperatura Precipitação Vento Pressão Humidade
    00:00 +8°C° 0,1 mm 6 m/s 763 mmHg 82%
    01:00 +7°C° 0,1 mm 6 m/s 763 mmHg 80%
    02:00 +7°C° 0,1 mm 5 m/s 763 mmHg 78%
    03:00 +7°C° 0 mm 5 m/s 764 mmHg 77%
    04:00 +7°C° 0 mm 5 m/s 764 mmHg 76%
    05:00 +7°C° 0 mm 4 m/s 764 mmHg 75%
    06:00 +8°C° 0 mm 4 m/s 764 mmHg 74%
    07:00 +8°C° 0 mm 4 m/s 765 mmHg 73%
    08:00 +10°C° 0 mm 4 m/s 765 mmHg 72%
    09:00 +11°C° 0 mm 4 m/s 766 mmHg 69%
    10:00 +11°C° 0 mm 4 m/s 766 mmHg 66%
    11:00 +12°C° 0 mm 4 m/s 766 mmHg 63%
    12:00 +13°C° 0,1 mm 4 m/s 766 mmHg 61%
    13:00 +13°C° 0,1 mm 4 m/s 765 mmHg 60%
    14:00 +14°C° 0,1 mm 4 m/s 765 mmHg 59%
    15:00 +13°C° 0 mm 4 m/s 766 mmHg 62%
    16:00 +12°C° 0 mm 4 m/s 766 mmHg 65%
    17:00 +12°C° 0 mm 3 m/s 766 mmHg 69%
    18:00 +11°C° 0 mm 3 m/s 767 mmHg 72%
    19:00 +10°C° 0 mm 3 m/s 767 mmHg 74%
    20:00 +9°C° 0 mm 2 m/s 768 mmHg 77%
    21:00 +8°C° 0 mm 2 m/s 768 mmHg 77%
    22:00 +9°C° 0 mm 1 m/s 768 mmHg 76%
    23:00 +9°C° 0 mm 1 m/s 768 mmHg 76%
    Mostrar mais